[[{"header":{"parameterUnit":"m.s-1","parameterCategory":1,"la1":30.2991,"la2":30.254,"lo1":-89.0895,"lo2":-89.0444,"dy":0.0017,"dx":0.0017,"nx":28,"ny":28,"refTime":"2024-08-11T21:00:00:Z","depth":0,"parameterNumber":2,"parameterNumberName":"U-component_of_WINDS"},"data":[0,0,0,0,0,0,0,0,0,0,0,0,0,0,0,0,0,0,0,0,0,0,0,0,0,0,0,0,0,0,0,0,0,0,0,0,0,0,0,0,0,0,0,0,0,0,0,0,0,0,0,0,0,0,0,0,0,0,0.1449,0.1449,0,0.1517,0.1518,0.1519,0.1521,0.152,0.152,0.1519,0.1594,0.1596,0.1599,0,0,0,0,0,0,0,0,0,0,0,0,0,0.1324,0.1326,0.1449,0.1449,0.145,0.1517,0.1518,0.1519,0.1521,0.152,0.1519,0.1518,0.1593,0.1596,0.1599,0,0,0,0,0,0,0,0,0,0,0,0,0,0.1384,0.1327,0.1448,0.1459,0.1461,0.1517,0.1518,0.1519,0.1522,0.152,0.1519,0.1518,0.1592,0.1596,0.16,0.1651,0,0,0.1613,0.1614,0,0,0,0,0,0,0,0,0.138,0.1388,0.1457,0.1459,0.1461,0.1509,0.1501,0.1564,0.1522,0.1499,0.1519,0.1517,0.1567,0.1573,0.1589,0.1654,0.1658,0.1613,0.1616,0.1617,0.1618,0,0,0,0,0,0,0,0.1376,0.1385,0.1476,0.1458,0.146,0.1462,0.1469,0.1513,0.1539,0.1501,0.1501,0.1509,0.1568,0.1585,0.1591,0.1659,0.1613,0.1617,0.1619,0.1621,0.177,0.1771,0,0,0,0,0,0,0.1369,0.1382,0.1474,0.1478,0.1416,0.1466,0.1474,0.1495,0.1539,0.1544,0.151,0.1509,0.1578,0.1586,0.1593,0.1657,0.1617,0.1621,0.1624,0.1769,0.177,0.1772,0,0,0,0,0,0,0.1366,0.1377,0.1471,0.143,0.1442,0.1469,0.1493,0.1497,0.1514,0.1546,0.1551,0.1522,0.1578,0.1587,0.1636,0.1659,0.1623,0.1627,0.1767,0.1769,0.1771,0.1783,0,0,0,0,0,0,0.1363,0.1376,0.1395,0.143,0.1444,0.1512,0.1495,0.1499,0.1521,0.152,0.1559,0.1564,0.1577,0.163,0.164,0.1664,0.163,0.1765,0.1768,0.177,0.1781,0.1786,0.179,0,0,0,0,0,0.1358,0.1397,0.1396,0.1407,0.1468,0.1513,0.1521,0.1535,0.1523,0.1543,0.1563,0.1563,0.1654,0.1635,0.1647,0.1672,0.1764,0.1767,0.177,0.1779,0.1785,0.179,0,0,0,0,0,0,0.1365,0.1402,0.1401,0.1452,0.1479,0.1513,0.1539,0.154,0.1573,0.1571,0.1587,0.1596,0.1645,0.1663,0.1641,0.1724,0.1708,0.1714,0.1711,0.1716,0.1721,0.1716,0.1634,0,0,0,0,0,0.1372,0.1405,0.1435,0.1477,0.149,0.1512,0.1532,0.154,0.157,0.1582,0.1605,0.1635,0.1671,0.1694,0.1729,0.1783,0.1792,0.1806,0.181,0.1814,0.182,0.185,0.1857,0.1783,0.1783,0.1783,0,0,0.1388,0.1412,0.1432,0.1479,0.1501,0.1535,0.1522,0.1559,0.1585,0.1588,0.1635,0.1654,0.1688,0.174,0.1764,0.1757,0.1842,0.1818,0.1821,0.1824,0.1855,0.1862,0.1868,0.1785,0.1785,0.1784,0,0,0.1435,0.1455,0.1493,0.1515,0.1547,0.1561,0.157,0.1604,0.1616,0.1663,0.1666,0.1698,0.1759,0.1783,0.1804,0.1858,0.186,0.1869,0.1893,0.1923,0.1928,0.1934,0.1955,0.1962,0.1874,0.1874,0.1874,0,0.1451,0.1501,0.1512,0.1549,0.157,0.1572,0.1611,0.1632,0.1675,0.1691,0.1681,0.1757,0.1781,0.1839,0.1852,0.1868,0.188,0.1866,0.1926,0.1932,0.1937,0.1957,0.1965,0.1875,0.1875,0.1875,0.1875,0,0.152,0.1555,0.1582,0.1622,0.1646,0.1683,0.1701,0.1724,0.1729,0.1745,0.1793,0.1821,0.1861,0.1875,0.1881,0.1934,0.1929,0.1923,0.1907,0.1945,0.1964,0.1972,0.1876,0.1876,0.1876,0.1876,0,0,0.1576,0.1619,0.1629,0.1648,0.1683,0.1712,0.1749,0.1787,0.1808,0.1837,0.187,0.1921,0.1915,0.1938,0.1947,0.1973,0.2016,0.1963,0.1964,0.1974,0.2077,0.2083,0.2092,0.2016,0.2017,0.2018,0.2075,0,0.1627,0.1694,0.1704,0.1763,0.1796,0.1798,0.1831,0.1857,0.1872,0.1903,0.192,0.1956,0.1945,0.1959,0.1985,0.2005,0.2037,0.2001,0.2049,0.2051,0.2042,0.2102,0.2108,0.2161,0.2082,0.2084,0.2085,0,0.1697,0.1727,0.1789,0.182,0.1835,0.1864,0.19,0.1929,0.1959,0.1968,0.1993,0.1998,0.2039,0.2019,0.2076,0.2051,0.2071,0.2084,0.2086,0.2093,0.2072,0.2112,0.2177,0.2186,0.2096,0.2095,0.2095,0,0.1734,0.1789,0.1833,0.1849,0.1886,0.1907,0.1923,0.1952,0.1974,0.2005,0.202,0.2056,0.2076,0.2104,0.2119,0.2103,0.2176,0.2157,0.2186,0.2186,0.2203,0.2202,0.2274,0.2212,0.2212,0.2212,0.2212,0,0.1792,0.183,0.185,0.1878,0.1921,0.1932,0.1975,0.1991,0.2016,0.2048,0.2051,0.2081,0.2098,0.2131,0.2143,0.2189,0.2198,0.2207,0.2211,0.2208,0.2207,0.2224,0.2221,0.2214,0.2214,0.2213,0.2213,0,0.1841,0.1855,0.1904,0.1934,0.1943,0.1974,0.2,0.2028,0.2041,0.2082,0.2092,0.2114,0.2153,0.217,0.2218,0.2226,0.2279,0.2278,0.2269,0.227,0.2299,0.2297,0.2386,0.2399,0.2326,0.2327,0.2327,0,0.1878,0.1907,0.194,0.1961,0.1978,0.2011,0.2034,0.2046,0.2069,0.2104,0.2128,0.2166,0.2197,0.2259,0.2281,0.2317,0.2319,0.2347,0.2325,0.2322,0.2322,0.2321,0.2324,0.2353,0.2353,0.2354,0.2354,0,0.1944,0.1949,0.198,0.2014,0.2039,0.2067,0.2094,0.2111,0.2127,0.2153,0.2192,0.2216,0.2264,0.2302,0.234,0.2358,0.236,0.2361,0.237,0.2369,0.2363,0.2369,0.2282,0.236,0.2359,0.2359,0.2358,0.2358,0.1989,0.2016,0.2043,0.2077,0.2098,0.2123,0.215,0.2167,0.2199,0.2238,0.2243,0.2285,0.2314,0.2365,0.2384,0.2418,0.2411,0.2424,0.2427,0.2431,0.2433,0.2355,0.2425,0.2424,0.2424,0.2424,0.2424,0,0.2056,0.2073,0.2105,0.2142,0.2169,0.2165,0.2195,0.2219,0.2255,0.2281,0.2311,0.2356,0.2393,0.2416,0.2454,0.2476,0.2478,0.2486,0.2486,0.249,0.2437,0.2426,0.2484,0.2484,0.2484,0.2484,0.2484,0.2484,0.2095,0.2139,0.2148,0.2203,0.222,0.226,0.2278,0.2301,0.2322,0.2371,0.2401,0.2416,0.2441,0.248,0.2514,0.252,0.2535,0.2544,0.255,0.25,0.2494,0.2488,0.2478,0.2546,0.2546,0.2601,0.2601,0.2602]},{"header":{"parameterUnit":"m.s-1","parameterCategory":1,"la1":30.2991,"la2":30.254,"lo1":-89.0895,"lo2":-89.0444,"dy":0.0017,"dx":0.0017,"nx":28,"ny":28,"refTime":"2024-08-11T21:00:00:Z","depth":0,"parameterNumber":3,"parameterNumberName":"V-component_of_WINDS"},"data":[0,0,0,0,0,0,0,0,0,0,0,0,0,0,0,0,0,0,0,0,0,0,0,0,0,0,0,0,0,0,0,0,0,0,0,0,0,0,0,0,0,0,0,0,0,0,0,0,0,0,0,0,0,0,0,0,0,0,1.4441,1.4441,0,1.4457,1.4457,1.4458,1.446,1.446,1.446,1.446,1.4473,1.4474,1.4474,0,0,0,0,0,0,0,0,0,0,0,0,0,1.4408,1.4408,1.4441,1.4441,1.4442,1.4457,1.4457,1.4458,1.446,1.446,1.446,1.446,1.4473,1.4474,1.4474,0,0,0,0,0,0,0,0,0,0,0,0,0,1.4423,1.4409,1.4441,1.4445,1.4445,1.4457,1.4457,1.4458,1.446,1.446,1.446,1.446,1.4473,1.4474,1.4474,1.4483,0,0,1.4477,1.4477,0,0,0,0,0,0,0,0,1.4422,1.4424,1.4444,1.4445,1.4445,1.4457,1.4451,1.4466,1.446,1.4454,1.446,1.4459,1.4468,1.4469,1.4472,1.4484,1.4484,1.4477,1.4477,1.4478,1.4478,0,0,0,0,0,0,0,1.4421,1.4423,1.4447,1.4444,1.4445,1.4444,1.4446,1.4454,1.4462,1.4455,1.4455,1.4457,1.4468,1.4472,1.4473,1.4484,1.4477,1.4477,1.4478,1.4478,1.45,1.45,0,0,0,0,0,0,1.442,1.4422,1.4447,1.4448,1.4433,1.4445,1.4447,1.4453,1.4462,1.4463,1.4457,1.4457,1.447,1.4472,1.4473,1.4482,1.4478,1.4478,1.4479,1.45,1.45,1.45,0,0,0,0,0,0,1.4419,1.4422,1.4446,1.4435,1.4438,1.4446,1.4452,1.4453,1.4457,1.4464,1.4465,1.446,1.447,1.4472,1.448,1.4482,1.4479,1.4479,1.45,1.45,1.45,1.4501,0,0,0,0,0,0,1.4418,1.4422,1.4426,1.4435,1.4439,1.4454,1.4453,1.4454,1.4459,1.4459,1.4466,1.4467,1.447,1.4479,1.4481,1.4483,1.448,1.45,1.45,1.45,1.45,1.4501,1.4501,0,0,0,0,0,1.4417,1.4426,1.4427,1.443,1.4445,1.4455,1.4456,1.4461,1.4459,1.4463,1.4466,1.4467,1.4482,1.448,1.4482,1.4485,1.45,1.45,1.45,1.45,1.4501,1.4501,0,0,0,0,0,0,1.4417,1.4427,1.4428,1.4441,1.4447,1.4455,1.446,1.4461,1.4467,1.4467,1.4471,1.4472,1.448,1.4483,1.448,1.4492,1.449,1.4491,1.449,1.449,1.449,1.4489,1.448,0,0,0,0,0,1.4418,1.4427,1.4435,1.4445,1.4448,1.4453,1.4458,1.446,1.4466,1.4468,1.4473,1.4478,1.4483,1.4487,1.4492,1.4501,1.4501,1.4503,1.4504,1.4504,1.4504,1.4506,1.4507,1.4501,1.4501,1.4501,0,0,1.4422,1.4428,1.4433,1.4445,1.445,1.4456,1.4456,1.4463,1.4467,1.4469,1.4477,1.448,1.4485,1.4493,1.4496,1.4496,1.4506,1.4504,1.4504,1.4505,1.4507,1.4507,1.4508,1.4502,1.4502,1.4502,0,0,1.443,1.4437,1.4445,1.445,1.4457,1.446,1.4462,1.447,1.4472,1.4479,1.448,1.4484,1.4495,1.4498,1.4501,1.4507,1.4507,1.4509,1.451,1.4512,1.4513,1.4513,1.4514,1.4514,1.4509,1.4509,1.4509,0,1.4433,1.4444,1.4449,1.4456,1.446,1.4461,1.4468,1.4472,1.4481,1.4482,1.4482,1.4493,1.4497,1.4504,1.4505,1.4508,1.4508,1.4508,1.4513,1.4513,1.4513,1.4514,1.4515,1.4509,1.4509,1.4509,1.4509,0,1.4446,1.4454,1.4459,1.4467,1.4471,1.4478,1.4482,1.4485,1.4486,1.4489,1.4495,1.45,1.4505,1.4507,1.4508,1.4513,1.4512,1.4512,1.4511,1.4514,1.4515,1.4515,1.4509,1.4509,1.4509,1.4509,0,0,1.4457,1.4466,1.4468,1.447,1.4477,1.4482,1.4487,1.4493,1.4495,1.45,1.4504,1.4511,1.451,1.4513,1.4514,1.4516,1.4518,1.4515,1.4515,1.4515,1.4522,1.4522,1.4522,1.4518,1.4519,1.4519,1.4521,0,1.4466,1.4477,1.448,1.4489,1.4494,1.4494,1.4499,1.4502,1.4504,1.4508,1.4509,1.4514,1.4513,1.4514,1.4516,1.4518,1.452,1.4518,1.452,1.452,1.4519,1.4523,1.4523,1.4525,1.4521,1.4522,1.4522,0,1.4478,1.4483,1.4492,1.4496,1.4498,1.4503,1.4506,1.451,1.4513,1.4514,1.4517,1.4517,1.4521,1.4519,1.4523,1.4521,1.4522,1.4523,1.4523,1.4523,1.4521,1.4522,1.4526,1.4526,1.4522,1.4522,1.4522,0,1.4483,1.4492,1.4498,1.45,1.4505,1.4508,1.451,1.4513,1.4515,1.4518,1.4519,1.4522,1.4523,1.4525,1.4525,1.4524,1.4528,1.4527,1.4528,1.4528,1.4529,1.4529,1.4532,1.453,1.453,1.453,1.453,0,1.4492,1.4497,1.45,1.4504,1.4508,1.451,1.4515,1.4517,1.4519,1.4521,1.4522,1.4524,1.4525,1.4526,1.4527,1.4529,1.453,1.4529,1.4529,1.4529,1.4529,1.4529,1.4529,1.4531,1.4531,1.453,1.453,0,1.4498,1.4501,1.4507,1.4511,1.4511,1.4515,1.4517,1.452,1.4521,1.4524,1.4525,1.4526,1.4528,1.4529,1.4531,1.4531,1.4533,1.4533,1.4532,1.4532,1.4532,1.4532,1.4536,1.4536,1.4535,1.4535,1.4535,0,1.4504,1.4508,1.4511,1.4513,1.4515,1.4518,1.452,1.4521,1.4523,1.4525,1.4527,1.4529,1.4531,1.4533,1.4534,1.4535,1.4534,1.4536,1.4535,1.4533,1.4533,1.4532,1.4532,1.4536,1.4536,1.4536,1.4536,0,1.4512,1.4512,1.4516,1.4519,1.4521,1.4523,1.4526,1.4527,1.4528,1.4529,1.4531,1.4533,1.4534,1.4535,1.4536,1.4536,1.4536,1.4536,1.4536,1.4536,1.4535,1.4534,1.4532,1.4536,1.4536,1.4536,1.4536,1.4536,1.4517,1.452,1.4522,1.4525,1.4527,1.4528,1.453,1.4531,1.4533,1.4535,1.4535,1.4536,1.4537,1.4538,1.4538,1.4538,1.4537,1.4538,1.4538,1.4538,1.4537,1.4535,1.4538,1.4538,1.4538,1.4538,1.4538,0,1.4525,1.4526,1.4528,1.4531,1.4532,1.4532,1.4533,1.4535,1.4536,1.4537,1.4538,1.4539,1.454,1.454,1.454,1.454,1.4539,1.454,1.4539,1.4539,1.4538,1.4538,1.454,1.454,1.454,1.454,1.454,1.454,1.4529,1.4532,1.4532,1.4536,1.4537,1.4539,1.4539,1.454,1.454,1.4541,1.4542,1.4542,1.4542,1.4541,1.4541,1.4541,1.454,1.4541,1.454,1.454,1.4539,1.4539,1.4539,1.4541,1.4541,1.4541,1.4541,1.4541]}]]